Location: Del Amo
(33.8464°N, 118.2104°W)
Time: 20:26:31
(UTC+00:00)

Courier 1B Rocket - Pass Details

Date: 17 September 2024
Orbit: 920 x 1201 km, 28.3° (Epoch: 13 October)

Event Time Altitude Azimuth Distance (km) Brightness Sun altitude
Rises 03:43:37 0° 270° (W) 3,854 9.3 -22.5°
Reaches altitude 10° 03:46:36 10° 260° (W) 2,942 8.3 -23.1°
Maximum altitude 03:52:52 32° 200° (SSW) 1,853 6.4 -24.3°
Enters shadow 03:55:24 26° 168° (SSE) 2,096 6.4 -24.8°
